Location: Leiter
(44.7178°N, 106.2687°W)
Time: 13:43:56
(UTC+00:00)

DX 1 - Pass Details

Date: 03 July 2022
Orbit: 617 x 629 km, 98.4° (Epoch: 08 August)

Event Time Altitude Azimuth Distance (km) Brightness Sun altitude
Rises 03:47:45 0° 21° (NNE) 2,928 ? -8.2°
Reaches altitude 10° 03:50:05 10° 29° (NNE) 2,015 ? -8.5°
Maximum altitude 03:54:11 39° 98° (E) 949 ? -9.0°
Drops below altitude 10° 03:58:15 10° 168° (SSE) 1,993 ? -9.5°
Enters shadow 03:58:44 - 170° (S) 2,174 ? -9.6°
